Regional Weather Roundup
Issued by NWS

Home | Current Version | Previous Version | Graphics & Text | Print | Product List | Glossary On
Versions: 1 2 3 4 5 6 7 8 9 10 11 12 13 14 15 16 17 18 19 20 21 22 23 24 25 26 27 28 29 30 31 32 33 34 35 36 37 38 39 40 41 42 43 44 45 46 47 48 49 50
000
ASUS43 KLOT 031558
RWRIL

ILLINOIS REGIONAL WEATHER ROUNDUP
NATIONAL WEATHER SERVICE CHICAGO/ROMEOVILLE IL
1000 AM CST TUE MAR 03 2015

NOTE: "FAIR" INDICATES FEW OR NO CLOUDS BELOW 12,000 FEET WITH NO
SIGNIFICANT WEATHER AND/OR OBSTRUCTIONS TO VISIBILITY.

* THESE STATIONS ARE NOT UNDER NWS QUALITY CONTROL. THEY ALSO MAY NOT
  REPORT WEATHER SUCH AS PRECIPITATION OR FOG.

ILZ001-002-007-009-015-016-024-031700-
NORTHWEST ILLINOIS

CITY           SKY/WX    TMP DP  RH WIND       PRES   REMARKS
MOLINE         CLOUDY    31  28  89 SW13      29.70F FOG     WCI  21
$$

ILZ003-004-008-010-011-017-018-031700-
NORTH CENTRAL ILLINOIS

CITY           SKY/WX    TMP DP  RH WIND       PRES   REMARKS
ROCKFORD       NOT AVBL
$$

ILZ005-006-012>014-019>023-031700-
NORTHEAST ILLINOIS

CITY           SKY/WX    TMP DP  RH WIND       PRES   REMARKS
CHICAGO-OHARE  FRZ DRZL  30  27  88 S20G28    29.71F FOG     WCI  17
CHICAGO-MIDWAY NOT AVBL
AURORA         LGT SNOW  31  27  85 S18       29.71F FOG     WCI  19
WAUKEGAN       CLOUDY    29  28  96 S14       29.71F FOG     WCI  18
DUPAGE AIRPORT LGT SNOW  30  28  92 S20G26    29.69F FOG     WCI  17
WHEELING       CLOUDY    30  27  88 S16       29.73F FOG     WCI  19
NORTHERLY ISL    N/A     30  28  92 S3          N/A
$$

LMZ740>746-031700-
SOUTHERN LAKE MICHIGAN

STATION/POSITION SKY/WX   TEMP    WIND        PRES    VSBY  WAVE
                          AIR SEA DIR/SP/G                  HT/PER
                          (F)     (DEG/KT/KT) (MB)    (MI)  (FT/S)
WAUKEGAN HARBOR            29                   N/A
HARRISON CRIB              28     160/  3/  4   N/A
BURNHAM HARBOR             30     190/  5/ 13   N/A
CALUMET HARBOR             30     160/ 14/ 21   N/A
MICHIGAN CITY              27     130/ 13/ 17   N/A
$$

ILZ025>027-034>036-040-047-049-050-058-095>099-031700-
WEST-CENTRAL ILLINOIS

CITY           SKY/WX    TMP DP  RH WIND       PRES   REMARKS
$$

ILZ028>032-037-038-041>044-048-051>054-059>061-031700-
CENTRAL ILLINOIS

CITY           SKY/WX    TMP DP  RH WIND       PRES   REMARKS
DECATUR        MIX PCPN  34  32  92 S20       29.79F FOG     WCI  23
PEORIA         FRZ RAIN  33  30  88 S14       29.75F FOG     WCI  23
SPRINGFIELD    CLOUDY    35  32  88 S21       29.76F FOG     WCI  24
TAYLORVILLE    NOT AVBL
$$

ILZ033-039-045-046-055>057-062-063-031700-
EAST-CENTRAL ILLINOIS

CITY           SKY/WX    TMP DP  RH WIND       PRES   REMARKS
$$

ILZ079-100>102-031700-
SOUTHWEST ILLINOIS

CITY           SKY/WX    TMP DP  RH WIND       PRES   REMARKS
ALTON          CLOUDY    37  36  93 S17       29.80F FOG     WCI  28
$$

ILZ064>066-069>071-074>076-080>082-084>086-088>090-092>094-031700-
SOUTH-CENTRAL ILLINOIS

CITY           SKY/WX    TMP DP  RH WIND       PRES   REMARKS
CARBONDALE     LGT RAIN  40  38  93 SW17      29.93R FOG
MARION         CLOUDY    41  39  93 S17       29.93F FOG
$$

ILZ067-068-072-073-078-083-087-091-031700-
SOUTHEAST ILLINOIS

CITY           SKY/WX    TMP DP  RH WIND       PRES   REMARKS
LAWRENCEVILLE  LGT SNOW  37  35  92 S15       29.90F FOG     WCI  28
$$

ABBREVIATIONS USED IN REMARKS
   TC - TEMPERATURE IN CELSIUS
  WCI - WIND CHILL INDEX
   HX - HEAT INDEX
  VSB - VISIBILITY
$$




USA.gov is the U.S. government's official web portal to all federal, state and local government web resources and services.